Time,TemperatureF,DewpointF,PressureIn,WindDirection,WindDirectionDegrees,WindSpeedMPH,WindSpeedGustMPH,Humidity,HourlyPrecipIn,Conditions,Clouds,dailyrainin,SolarRadiationWatts/m^2,SoftwareType,DateUTC
2013-08-11 00:00:00,77.7,75.0,30.11,East,86,0.0,-999.0,91,-99.99,,,0.01,0,weatherlink.com 1.10,2013-08-11 04:00:00,
2013-08-11 00:15:00,77.6,75.0,30.10,East,86,0.0,-999.0,92,-99.99,,,0.00,0,weatherlink.com 1.10,2013-08-11 04:15:00,
2013-08-11 00:30:00,77.4,75.0,30.11,East,86,0.0,-999.0,92,-99.99,,,0.00,0,weatherlink.com 1.10,2013-08-11 04:30:00,
2013-08-11 00:45:00,77.0,75.0,30.11,East,86,0.0,-999.0,93,-99.99,,,0.00,0,weatherlink.com 1.10,2013-08-11 04:45:00,
2013-08-11 01:00:00,76.7,75.0,30.11,East,86,0.0,-999.0,94,-99.99,,,0.00,0,weatherlink.com 1.10,2013-08-11 05:00:00,
2013-08-11 01:30:00,76.3,75.0,30.11,East,86,0.0,-999.0,96,-99.99,,,0.00,0,weatherlink.com 1.10,2013-08-11 05:30:00,
2013-08-11 01:45:00,76.3,75.0,30.10,East,86,0.0,-999.0,95,-99.99,,,0.00,0,weatherlink.com 1.10,2013-08-11 05:45:00,
2013-08-11 02:01:00,76.0,75.0,30.10,East,86,0.0,-999.0,96,-99.99,,,0.00,0,weatherlink.com 1.10,2013-08-11 06:01:00,
2013-08-11 03:01:00,75.3,75.0,30.09,East,86,0.0,-999.0,98,-99.99,,,0.00,0,weatherlink.com 1.10,2013-08-11 07:01:00,
2013-08-11 03:15:00,74.9,74.0,30.09,East,86,0.0,-999.0,98,-99.99,,,0.00,0,weatherlink.com 1.10,2013-08-11 07:15:00,
2013-08-11 03:31:00,74.9,75.0,30.09,East,86,0.0,-999.0,99,-99.99,,,0.00,0,weatherlink.com 1.10,2013-08-11 07:31:00,
2013-08-11 03:45:00,74.6,74.0,30.09,East,86,0.0,-999.0,99,-99.99,,,0.00,0,weatherlink.com 1.10,2013-08-11 07:45:00,
2013-08-11 04:00:00,74.4,74.0,30.09,East,86,0.0,-999.0,100,-99.99,,,0.00,0,weatherlink.com 1.10,2013-08-11 08:00:00,
2013-08-11 04:30:00,74.0,74.0,30.09,East,86,0.0,-999.0,100,-99.99,,,0.00,0,weatherlink.com 1.10,2013-08-11 08:30:00,
2013-08-11 04:46:00,73.9,74.0,30.09,East,86,0.0,-999.0,100,-99.99,,,0.00,0,weatherlink.com 1.10,2013-08-11 08:46:00,
2013-08-11 05:01:00,73.9,74.0,30.09,East,86,0.0,-999.0,100,-99.99,,,0.00,0,weatherlink.com 1.10,2013-08-11 09:01:00,
2013-08-11 05:15:00,73.3,73.0,30.09,East,86,0.0,-999.0,100,-99.99,,,0.00,0,weatherlink.com 1.10,2013-08-11 09:15:00,
2013-08-11 05:31:00,73.3,73.0,30.10,East,86,0.0,-999.0,100,-99.99,,,0.00,0,weatherlink.com 1.10,2013-08-11 09:31:00,
2013-08-11 06:01:00,73.3,73.0,30.10,East,86,0.0,-999.0,100,-99.99,,,0.00,0,weatherlink.com 1.10,2013-08-11 10:01:00,
2013-08-11 06:16:00,73.3,73.0,30.10,East,86,0.0,-999.0,100,-99.99,,,0.00,0,weatherlink.com 1.10,2013-08-11 10:16:00,
2013-08-11 06:46:00,73.0,73.0,30.10,East,86,0.0,-999.0,100,-99.99,,,0.00,0,weatherlink.com 1.10,2013-08-11 10:46:00,
2013-08-11 07:01:00,72.8,73.0,30.10,East,86,0.0,-999.0,100,-99.99,,,0.00,5,weatherlink.com 1.10,2013-08-11 11:01:00,
2013-08-11 07:16:00,73.2,73.0,30.10,East,86,0.0,-999.0,100,-99.99,,,0.00,19,weatherlink.com 1.10,2013-08-11 11:16:00,
2013-08-11 07:31:00,73.3,73.0,30.11,East,86,0.0,-999.0,100,-99.99,,,0.00,44,weatherlink.com 1.10,2013-08-11 11:31:00,
2013-08-11 08:01:00,74.9,75.0,30.11,East,86,0.0,-999.0,100,-99.99,,,0.00,118,weatherlink.com 1.10,2013-08-11 12:01:00,
2013-08-11 08:16:00,76.3,76.0,30.12,East,86,0.0,-999.0,100,-99.99,,,0.00,162,weatherlink.com 1.10,2013-08-11 12:16:00,
2013-08-11 08:30:00,77.4,77.0,30.12,North,355,0.0,-999.0,100,-99.99,,,0.00,206,weatherlink.com 1.10,2013-08-11 12:30:00,
2013-08-11 08:45:00,78.8,78.0,30.12,NE,51,0.0,-999.0,98,-99.99,,,0.00,264,weatherlink.com 1.10,2013-08-11 12:45:00,
2013-08-11 09:30:00,82.4,78.0,30.12,SSW,194,4.0,-999.0,85,-99.99,,,0.00,381,weatherlink.com 1.10,2013-08-11 13:30:00,
2013-08-11 09:46:00,83.4,77.0,30.12,SSE,164,0.0,-999.0,82,-99.99,,,0.00,388,weatherlink.com 1.10,2013-08-11 13:46:00,
2013-08-11 10:15:00,84.5,76.0,30.13,South,175,6.0,-999.0,76,-99.99,,,0.00,587,weatherlink.com 1.10,2013-08-11 14:15:00,
2013-08-11 10:30:00,85.5,76.0,30.13,SSE,167,6.0,-999.0,74,-99.99,,,0.00,621,weatherlink.com 1.10,2013-08-11 14:30:00,
2013-08-11 10:45:00,85.7,75.0,30.13,SSE,161,1.0,-999.0,71,-99.99,,,0.00,666,weatherlink.com 1.10,2013-08-11 14:45:00,
2013-08-11 11:01:00,86.3,76.0,30.13,SE,143,1.0,-999.0,72,-99.99,,,0.00,707,weatherlink.com 1.10,2013-08-11 15:01:00,
2013-08-11 11:16:00,87.4,76.0,30.13,South,181,5.0,-999.0,68,-99.99,,,0.00,744,weatherlink.com 1.10,2013-08-11 15:16:00,
2013-08-11 11:30:00,87.6,75.0,30.13,South,180,5.0,-999.0,67,-99.99,,,0.00,788,weatherlink.com 1.10,2013-08-11 15:30:00,
2013-08-11 11:45:00,88.8,76.0,30.13,South,178,0.0,-999.0,65,-99.99,,,0.00,817,weatherlink.com 1.10,2013-08-11 15:45:00,
2013-08-11 12:01:00,89.0,75.0,30.12,SSW,192,5.0,-999.0,64,-99.99,,,0.00,853,weatherlink.com 1.10,2013-08-11 16:01:00,
2013-08-11 12:46:00,90.3,74.0,30.11,SSW,211,0.0,-999.0,58,-99.99,,,0.00,926,weatherlink.com 1.10,2013-08-11 16:46:00,
2013-08-11 13:15:00,91.0,75.0,30.10,ESE,118,0.0,-999.0,60,-99.99,,,0.00,991,weatherlink.com 1.10,2013-08-11 17:15:00,
2013-08-11 13:30:00,92.1,76.0,30.10,SSW,198,7.0,-999.0,59,-99.99,,,0.00,1074,weatherlink.com 1.10,2013-08-11 17:30:00,
2013-08-11 14:01:00,91.6,75.0,30.10,South,178,1.0,-999.0,59,-99.99,,,0.00,814,weatherlink.com 1.10,2013-08-11 18:01:00,
2013-08-11 14:30:00,91.8,72.0,30.09,ENE,63,6.0,-999.0,53,-99.99,,,0.00,986,weatherlink.com 1.10,2013-08-11 18:30:00,
2013-08-11 14:45:00,92.7,73.0,30.08,South,184,0.0,-999.0,52,-99.99,,,0.00,930,weatherlink.com 1.10,2013-08-11 18:45:00,
2013-08-11 15:15:00,94.0,74.0,30.07,ENE,69,4.0,-999.0,52,-99.99,,,0.00,1032,weatherlink.com 1.10,2013-08-11 19:15:00,
2013-08-11 15:30:00,93.2,75.0,30.07,ENE,57,2.0,-999.0,55,-99.99,,,0.00,1034,weatherlink.com 1.10,2013-08-11 19:30:00,
2013-08-11 15:45:00,93.2,74.0,30.06,ESE,107,6.0,-999.0,53,-99.99,,,0.00,981,weatherlink.com 1.10,2013-08-11 19:45:00,
2013-08-11 16:00:00,92.9,73.0,30.06,ESE,104,0.0,-999.0,52,-99.99,,,0.00,824,weatherlink.com 1.10,2013-08-11 20:00:00,
2013-08-11 16:15:00,93.8,73.0,30.05,SSE,150,0.0,-999.0,51,-99.99,,,0.00,807,weatherlink.com 1.10,2013-08-11 20:15:00,
2013-08-11 16:30:00,93.8,73.0,30.05,SSE,160,8.0,-999.0,51,-99.99,,,0.00,826,weatherlink.com 1.10,2013-08-11 20:30:00,
2013-08-11 16:45:00,93.2,72.0,30.04,ESE,122,0.0,-999.0,50,-99.99,,,0.00,534,weatherlink.com 1.10,2013-08-11 20:45:00,
2013-08-11 17:00:00,91.8,73.0,30.04,ESE,107,0.0,-999.0,54,-99.99,,,0.00,436,weatherlink.com 1.10,2013-08-11 21:00:00,
2013-08-11 17:30:00,93.6,71.0,30.03,SE,146,4.0,-999.0,48,-99.99,,,0.00,529,weatherlink.com 1.10,2013-08-11 21:30:00,
2013-08-11 17:45:00,93.2,71.0,30.03,SSE,152,0.0,-999.0,48,-99.99,,,0.00,501,weatherlink.com 1.10,2013-08-11 21:45:00,
2013-08-11 18:00:00,93.8,72.0,30.03,ESE,119,2.0,-999.0,49,-99.99,,,0.00,469,weatherlink.com 1.10,2013-08-11 22:00:00,
2013-08-11 18:16:00,92.3,73.0,30.03,East,85,0.0,-999.0,53,-99.99,,,0.00,374,weatherlink.com 1.10,2013-08-11 22:16:00,
2013-08-11 18:30:00,90.5,73.0,30.03,SE,136,0.0,-999.0,56,-99.99,,,0.00,369,weatherlink.com 1.10,2013-08-11 22:30:00,
2013-08-11 18:45:00,91.2,74.0,30.03,South,180,5.0,-999.0,58,-99.99,,,0.00,260,weatherlink.com 1.10,2013-08-11 22:45:00,
2013-08-11 19:00:00,90.7,75.0,30.03,SSE,168,0.0,-999.0,60,-99.99,,,0.00,176,weatherlink.com 1.10,2013-08-11 23:00:00,
2013-08-11 19:15:00,90.3,75.0,30.03,East,93,0.0,-999.0,61,-99.99,,,0.00,123,weatherlink.com 1.10,2013-08-11 23:15:00,
2013-08-11 19:46:00,87.2,78.0,30.04,East,93,0.0,-999.0,73,-99.99,,,0.00,40,weatherlink.com 1.10,2013-08-11 23:46:00,
2013-08-11 20:15:00,85.9,76.0,30.05,East,94,0.0,-999.0,72,-99.99,,,0.00,0,weatherlink.com 1.10,2013-08-12 00:15:00,
2013-08-11 20:30:00,85.3,77.0,30.06,East,96,0.0,-999.0,75,-99.99,,,0.00,0,weatherlink.com 1.10,2013-08-12 00:30:00,
2013-08-11 21:01:00,84.0,77.0,30.07,ESE,107,0.0,-999.0,78,-99.99,,,0.00,0,weatherlink.com 1.10,2013-08-12 01:01:00,
2013-08-11 21:46:00,82.2,76.0,30.08,ENE,78,0.0,-999.0,81,-99.99,,,0.00,0,weatherlink.com 1.10,2013-08-12 01:46:00,
2013-08-11 22:00:00,81.6,76.0,30.09,ESE,115,0.0,-999.0,82,-99.99,,,0.00,0,weatherlink.com 1.10,2013-08-12 02:00:00,
2013-08-11 22:16:00,81.2,76.0,30.09,SE,145,0.0,-999.0,83,-99.99,,,0.00,0,weatherlink.com 1.10,2013-08-12 02:16:00,
2013-08-11 22:30:00,80.7,76.0,30.10,SE,145,0.0,-999.0,84,-99.99,,,0.00,0,weatherlink.com 1.10,2013-08-12 02:30:00,
2013-08-11 22:45:00,80.3,76.0,30.10,SE,145,0.0,-999.0,85,-99.99,,,0.00,0,weatherlink.com 1.10,2013-08-12 02:45:00,
2013-08-11 23:16:00,79.6,75.0,30.11,SE,146,0.0,-999.0,85,-99.99,,,0.00,0,weatherlink.com 1.10,2013-08-12 03:16:00,
2013-08-11 23:30:00,79.2,74.0,30.11,SE,146,0.0,-999.0,85,-99.99,,,0.00,0,weatherlink.com 1.10,2013-08-12 03:30:00,